Location: Anjeux
(47.8815°N, 6.2076°E)
Time: 04:45:59
(UTC+00:00)

Cosmos 2082 Rocket - Visible Passes

Search period start: 15 June 2021 00:00
Search period end: 25 June 2021 00:00
Orbit: 834 x 852 km, 71.0° (Epoch: 14 June)

Date Brightness Start Highest point End Pass type
(mag) Time Alt. Az. Time Alt. Az. Time Alt. Az.
21 Jun 3.9 02:51:38 10° SSE 02:56:22 29° ESE 03:01:08 10° NE visible
22 Jun 3.9 02:37:09 10° SSE 02:41:50 28° ESE 02:46:32 10° NE visible
23 Jun 3.9 02:22:41 10° SSE 02:27:18 27° ESE 02:31:56 10° NE visible
24 Jun 3.9 02:08:14 10° SSE 02:12:46 26° ESE 02:17:19 10° NE visible
